TimeMST,TemperatureF,Dew PointF,Humidity,Sea Level PressureIn,VisibilityMPH,Wind Direction,Wind SpeedMPH,Gust SpeedMPH,PrecipitationIn,Events,Conditions,WindDirDegrees,DateUTC
12:51 AM,7.0,3.0,84,30.09,10.0,Calm,Calm,-,N/A,,Clear,0,2013-12-20 07:51:00
1:51 AM,5.0,1.9,87,30.08,10.0,Calm,Calm,-,N/A,,Clear,0,2013-12-20 08:51:00
2:51 AM,5.0,-0.0,80,30.08,10.0,Calm,Calm,-,N/A,,Clear,0,2013-12-20 09:51:00
3:51 AM,3.0,-0.9,84,30.09,10.0,Calm,Calm,-,N/A,,Partly Cloudy,0,2013-12-20 10:51:00
4:51 AM,3.0,-0.9,84,30.09,10.0,Calm,Calm,-,N/A,,Partly Cloudy,0,2013-12-20 11:51:00
5:51 AM,1.9,-2.0,83,30.11,10.0,Calm,Calm,-,N/A,,Clear,0,2013-12-20 12:51:00
6:27 AM,1.0,-2.9,83,29.90,10.0,Calm,Calm,-,N/A,,Mostly Cloudy,0,2013-12-20 13:27:00
6:36 AM,3.0,-0.9,84,29.90,10.0,Calm,Calm,-,N/A,,Overcast,0,2013-12-20 13:36:00
6:51 AM,5.0,-0.0,80,30.10,10.0,Calm,Calm,-,N/A,,Overcast,0,2013-12-20 13:51:00
7:04 AM,6.1,1.9,83,29.90,10.0,Calm,Calm,-,N/A,,Overcast,0,2013-12-20 14:04:00
7:51 AM,7.0,3.9,87,30.12,10.0,Calm,Calm,-,N/A,,Overcast,0,2013-12-20 14:51:00
8:51 AM,10.0,6.1,84,30.10,10.0,Calm,Calm,-,N/A,,Overcast,0,2013-12-20 15:51:00
9:51 AM,12.0,9.0,88,30.11,10.0,Calm,Calm,-,N/A,,Overcast,0,2013-12-20 16:51:00
10:51 AM,12.0,9.0,88,30.11,10.0,Calm,Calm,-,N/A,,Clear,0,2013-12-20 17:51:00
11:51 AM,14.0,10.9,88,30.08,10.0,Calm,Calm,-,N/A,,Overcast,0,2013-12-20 18:51:00
12:51 PM,16.0,10.9,81,30.06,10.0,Calm,Calm,-,N/A,,Overcast,0,2013-12-20 19:51:00
1:23 PM,16.0,10.9,81,29.84,1.8,Calm,Calm,-,0.00,Snow,Light Snow,0,2013-12-20 20:23:00
1:33 PM,16.0,12.0,84,29.83,0.8,Calm,Calm,-,0.00,Snow,Light Snow,0,2013-12-20 20:33:00
1:51 PM,16.0,12.0,84,30.03,0.8,Calm,Calm,-,0.01,Snow,Light Snow,0,2013-12-20 20:51:00
1:57 PM,16.0,12.0,84,29.81,1.0,SSE,4.6,-,0.00,Snow,Light Snow,150,2013-12-20 20:57:00
2:03 PM,17.1,12.0,81,29.82,1.5,South,4.6,-,0.01,Snow,Light Snow,170,2013-12-20 21:03:00
2:14 PM,17.1,12.0,81,29.81,2.5,SSE,5.8,-,0.01,Snow,Light Snow,160,2013-12-20 21:14:00
2:20 PM,17.1,12.0,81,29.81,2.5,SSE,5.8,-,0.01,Snow,Light Snow,160,2013-12-20 21:20:00
2:31 PM,17.1,12.0,81,29.79,3.0,SSE,4.6,-,0.01,Snow,Light Snow,150,2013-12-20 21:31:00
2:51 PM,17.1,12.0,81,30.00,9.0,South,5.8,-,0.01,,Overcast,180,2013-12-20 21:51:00
3:07 PM,17.1,12.0,81,29.78,1.8,South,4.6,-,0.00,Snow,Light Snow,190,2013-12-20 22:07:00
3:13 PM,17.1,12.0,81,29.78,1.5,South,4.6,-,0.00,Snow,Light Snow,190,2013-12-20 22:13:00
3:21 PM,16.0,12.0,84,29.78,0.8,South,4.6,-,0.01,Snow,Light Snow,190,2013-12-20 22:21:00
3:33 PM,17.1,12.9,84,29.78,1.0,SW,3.5,-,0.01,Snow,Light Snow,220,2013-12-20 22:33:00
3:40 PM,17.1,12.0,81,29.78,0.8,SW,3.5,-,0.02,Snow,Light Snow,220,2013-12-20 22:40:00
3:51 PM,16.0,12.0,84,29.99,0.5,SSW,3.5,-,0.02,Fog-Snow,Light Snow,200,2013-12-20 22:51:00
3:57 PM,16.0,12.9,88,29.77,0.5,Calm,Calm,-,0.01,Fog-Snow,Light Snow,0,2013-12-20 22:57:00
4:35 PM,17.1,12.9,84,29.75,0.2,South,4.6,-,0.04,Fog-Snow,Snow,170,2013-12-20 23:35:00
4:51 PM,17.1,14.0,88,29.95,0.2,South,8.1,-,0.07,Fog-Snow,Snow,170,2013-12-20 23:51:00
5:51 PM,16.0,12.0,84,29.93,1.2,SSE,12.7,-,0.09,Snow,Light Snow,160,2013-12-21 00:51:00
5:55 PM,16.0,12.0,84,29.71,2.0,South,9.2,-,0.00,Snow,Light Snow,170,2013-12-21 00:55:00
6:05 PM,16.0,12.9,88,29.72,1.2,SSE,6.9,-,0.01,Snow,Light Snow,160,2013-12-21 01:05:00
6:09 PM,16.0,12.9,88,29.71,0.8,SSE,11.5,-,0.01,Snow,Light Snow,160,2013-12-21 01:09:00
6:24 PM,16.0,12.9,88,29.72,0.5,SSE,9.2,-,0.04,Fog-Snow,Snow,150,2013-12-21 01:24:00
6:51 PM,16.0,12.9,88,29.92,0.5,SE,8.1,-,0.10,Fog-Snow,Snow,140,2013-12-21 01:51:00
7:10 PM,17.1,12.9,84,29.70,1.2,SE,9.2,-,0.02,Snow,Light Snow,140,2013-12-21 02:10:00
7:19 PM,17.1,12.9,84,29.70,2.5,SSE,8.1,-,0.02,Snow,Light Snow,150,2013-12-21 02:19:00
7:33 PM,16.0,12.9,88,29.70,1.5,SSE,4.6,-,0.05,Snow,Light Snow,160,2013-12-21 02:33:00
7:46 PM,15.8,12.2,86,29.69,3.0,SSE,4.6,-,0.06,Snow,Light Snow,160,2013-12-21 02:46:00
7:51 PM,16.0,12.0,84,29.89,5.0,Calm,Calm,-,0.06,Snow,Light Snow,0,2013-12-21 02:51:00
8:17 PM,16.0,12.0,84,29.67,4.0,Calm,Calm,-,0.00,Snow,Light Snow,0,2013-12-21 03:17:00
8:32 PM,16.0,12.9,88,29.67,1.8,Calm,Calm,-,0.00,Snow,Light Snow,0,2013-12-21 03:32:00
8:37 PM,16.0,12.9,88,29.67,1.0,Calm,Calm,-,0.01,Snow,Light Snow,0,2013-12-21 03:37:00
8:45 PM,16.0,12.9,88,29.67,0.8,Calm,Calm,-,0.01,Snow,Light Snow,0,2013-12-21 03:45:00
8:51 PM,16.0,12.9,88,29.85,0.8,Calm,Calm,-,0.02,Snow,Light Snow,0,2013-12-21 03:51:00
9:00 PM,16.0,12.9,88,29.67,0.8,NNW,3.5,-,0.01,Snow,Light Snow,330,2013-12-21 04:00:00
9:11 PM,17.1,12.9,84,29.66,1.0,NNW,3.5,-,0.03,Snow,Light Snow,340,2013-12-21 04:11:00
9:17 PM,17.1,12.9,84,29.66,0.8,Calm,Calm,-,0.03,Snow,Light Snow,0,2013-12-21 04:17:00
9:25 PM,17.1,12.9,84,29.66,1.0,Calm,Calm,-,0.04,Snow,Light Snow,0,2013-12-21 04:25:00
9:51 PM,17.1,12.9,84,29.83,1.2,Calm,Calm,-,0.06,Snow,Light Snow,0,2013-12-21 04:51:00
9:56 PM,17.1,12.9,84,29.66,2.0,Calm,Calm,-,0.00,Snow,Light Snow,0,2013-12-21 04:56:00
10:23 PM,17.1,12.9,84,29.67,1.5,Calm,Calm,-,0.02,Snow,Light Snow,0,2013-12-21 05:23:00
10:44 PM,17.1,12.9,84,29.67,1.0,Calm,Calm,-,0.03,Snow,Light Snow,0,2013-12-21 05:44:00
10:51 PM,17.1,12.9,84,29.84,1.2,Calm,Calm,-,0.03,Snow,Light Snow,0,2013-12-21 05:51:00
11:02 PM,17.1,12.9,84,29.68,3.0,Calm,Calm,-,0.01,Snow,Light Snow,0,2013-12-21 06:02:00
11:11 PM,17.1,14.0,88,29.67,3.0,Calm,Calm,-,0.01,Snow,Light Snow,0,2013-12-21 06:11:00
11:51 PM,17.1,14.0,88,29.84,8.0,Calm,Calm,-,0.01,,Overcast,0,2013-12-21 06:51:00